Weather in Uzhhorod

Ukraine / Zakarpattia District     48°37′31″N   22°17′19″E
temp.,
°C
wind,
m/s
gust,
m/s
humid.,
%
clouds,
%
prec.,
mm/h
press.,
hPa
HPBL,
m
12 august, fri
fri1200:00+15nne35762 0.0 101975
03:00+13ne23835 0.0 101944
06:00+13ne33843 0.0 101945
09:00+20nne22550 0.0 1019266
12:00+27nne12310 0.0 10181709
15:00+30ene242610 0.0 10162878
18:00+28ene6640100 0.0 10151594
21:00+20ne3470100 0.0 101686
13 august, sat
sat1300:00+17ne3484100 0.0 101667
03:00+16ne2392100 0.0 101546
06:00+15nne2394100 0.0 101458
09:00+20nne2368100 0.0 1014432
12:00+27ne11459 0.0 10121402
15:00+29nne223795 0.0 10102428
18:00+27ne444565 0.1 10101475
21:00+21nne367198 0.1 1010191
14 august, sun
sun1400:00+18nne358994 0.0 1010107
03:00+17nne3592100 0.0 1010112
06:00+16nne349525 0.0 101078
09:00+22n346994 0.0 1009530
12:00+26nne2351100 0.0 10091307
15:00+28nne2244100 0.0 10081687
18:00+27ne3249100 0.0 10071049
21:00+21ne227321 0.1 100728
15 august, mon
mon1500:00+18ne228568 0.1 100724
03:00+17ne118925 0.4 100613
06:00+16ene119395 1.8 100713
09:00+20se0183100 1.8 1007177
12:00+25ssw22577 0.3 1007877
15:00+29ssw224071 0.3 10061762
18:00+25ene445766 0.4 1006641
21:00+17nw2597100 3.3 1008113
16 august, tue
tue1600:00+17ne2194100 1.4 100726
03:00+16nne11933 1.9 100816
06:00+16ene22945 0.6 100821
09:00+20e01826 0.7 1009173
12:00+26ssw2253100 0.0 1008908
15:00+30wsw3340100 0.0 10081820
18:00+30w243790 0.0 10071718
21:00+18nne4790100 0.8 1010167